Station: Busselton Airport  

  Atmospheric Gas Attenuation - ITU Rec 676-11   ----------------- dB/100km -----------------
Date Time Temp RH % AH g/m3 Dew Point Wind Direction Speed kph Gust kph Barometer mB Rainfall Since 9am 24GHz 47GHz 76GHz 122GHz 134GHz 241GHz
05/05 10:42 17.5 68 10.14 11.5 15 17 1028 0 22.7 27.8 44.7 117.5 115.1 397.2
05/05 10:40 17.2 68 9.96 11.2 13 17 1028 0 22.3 27.6 44.2 115.9 113.1 390.2
05/05 10:30 17 68 9.84 11.1 13 17 1027.9 0 22.0 27.5 43.8 114.9 111.8 385.6
05/05 10:20 16.9 69 9.92 11.2 11 17 1028.1 0 22.2 27.7 44.2 116.0 113.0 389.9
05/05 10:10 16.5 71 9.97 11.2 15 19 1028.2 0 22.3 27.9 44.6 117.1 114.3 394.3
05/05 10:00 16.1 72 9.87 11.1 11 17 1028.2 0 22.2 27.8 44.4 116.6 113.5 391.6
05/05 09:50 15.8 75 10.1 11.4 13 17 1028.3 0 22.7 28.3 45.6 119.6 117.1 404.0
05/05 09:40 15.3 76 9.92 11.1 15 20 1028.3 0 22.3 28.2 45.1 118.4 115.4 398.0
05/05 09:30 14.7 77 9.69 10.7 17 20 1028.2 0 21.8 28.0 44.5 116.7 113.1 390.0
05/05 09:20 14.3 78 9.58 10.5 20 22 1028.4 0 21.6 27.9 44.2 116.1 112.2 386.8
05/05 09:10 13.9 79 9.47 10.3 19 20 1028.4 0 21.4 27.9 44.0 115.5 111.3 383.4
05/05 09:00 13.6 80 9.42 10.2 13 20 1028.3 0 21.3 27.9 44.0 115.3 111.0 382.5
05/05 08:50 13.4 85 9.88 10.9 9 11 1028.5 0 22.3 28.7 46.0 120.9 117.7 405.9
05/05 08:40 12.6 86 9.52 10.3 7 9 1028.5 0 21.6 28.4 45.0 118.0 113.9 392.4
05/05 08:30 12.2 90 9.71 10.6 9 13 1028.3 0 22.0 28.8 46.0 120.7 117.2 403.7
05/05 08:20 11.7 91 9.52 10.3 11 11 1028.2 0 21.6 28.7 45.5 119.3 115.2 396.9
05/05 08:10 11.3 94 9.59 10.4 9 11 1028.1 0 21.8 28.9 46.0 120.7 116.8 402.4
05/05 08:00 10.5 98 9.51 10.2 9 11 1027.9 0 21.7 29.0 46.1 121.0 116.9 402.5
05/05 07:50 9.7 98 9.04 9.4 9 9 1027.9 0 20.7 28.5 44.5 116.8 111.3 382.9
05/05 07:40 9.1 98 8.7 8.8 7 9 1027.8 0 20.0 28.1 43.4 113.7 107.3 368.8
05/05 07:30 8.8 98 8.53 8.5 7 9 1027.6 0 19.7 27.9 42.8 112.1 105.3 361.6
05/05 07:20 8.7 98 8.48 8.4 7 7 1027.6 0 19.6 27.8 42.6 111.7 104.7 359.6
05/05 07:10 8.6 99 8.51 8.5 7 9 1027.5 0 19.6 27.9 42.8 112.2 105.2 361.5
05/05 07:00 8.6 99 8.51 8.5 7 9 1027.2 0 19.6 27.9 42.8 112.2 105.2 361.4
05/05 06:50 8.5 99 8.46 8.4 7 7 1027.2 0 19.5 27.8 42.6 111.7 104.6 359.4
05/05 06:40 8.4 99 8.4 8.3 6 6 1026.9 0 19.4 27.7 42.4 111.1 103.9 356.8
05/05 06:30 8 98 8.11 7.7 9 13 1026.9 0 18.8 27.3 41.4 108.4 100.3 344.2
05/05 06:20 8.6 99 8.51 8.5 13 15 1026.8 0 19.6 27.8 42.8 112.1 105.2 361.3
05/05 06:10 9.1 99 8.79 9 15 17 1026.7 0 20.2 28.2 43.7 114.6 108.5 372.9
05/05 06:00 8.3 99 8.35 8.2 15 17 1026.7 0 19.3 27.7 42.2 110.7 103.3 354.7
05/05 05:50 8 99 8.19 7.9 15 17 1026.7 0 19.0 27.5 41.7 109.3 101.4 348.1
05/05 05:40 8.1 99 8.24 8 15 17 1026.7 0 19.1 27.5 41.9 109.7 102.0 350.1
05/05 05:30 7.9 99 8.14 7.8 13 15 1026.7 0 18.9 27.4 41.5 108.8 100.8 346.1
05/05 05:20 7.8 99 8.08 7.7 13 13 1026.7 0 18.7 27.3 41.3 108.3 100.1 343.5
05/05 05:10 8.2 99 8.29 8.1 11 11 1026.7 0 19.2 27.6 42.0 110.1 102.6 352.2
05/05 05:00 8.2 99 8.29 8.1 9 13 1026.7 0 19.2 27.6 42.0 110.1 102.6 352.2
05/05 04:50 8.6 99 8.51 8.5 13 13 1026.6 0 19.6 27.8 42.8 112.1 105.2 361.3
05/05 04:40 8.5 99 8.46 8.4 15 15 1026.7 0 19.5 27.8 42.6 111.7 104.6 359.3
05/05 04:30 8.5 99 8.46 8.4 15 17 1026.6 0 19.5 27.8 42.6 111.7 104.6 359.2
05/05 04:20 8.2 99 8.29 8.1 15 15 1026.5 0 19.2 27.6 42.0 110.1 102.6 352.1
05/05 04:10 7.7 99 8.03 7.6 17 19 1026.5 0 18.6 27.3 41.2 107.8 99.5 341.4
05/05 04:00 7.3 99 7.83 7.2 13 17 1026.5 0 18.2 27.1 40.5 106.1 97.2 333.2
05/05 03:50 6.8 99 7.58 6.7 13 15 1026.6 0 17.7 26.8 39.7 103.9 94.3 323.0
05/05 03:40 6.1 99 7.24 6 13 13 1026.5 0 17.0 26.4 38.6 100.9 90.3 309.0
05/05 03:30 5.8 99 7.1 5.7 11 13 1026.5 0 16.7 26.3 38.1 99.7 88.7 303.3
05/05 03:20 6.7 99 7.53 6.6 9 9 1026.5 0 17.6 26.7 39.5 103.4 93.7 320.9
05/05 03:10 7.2 99 7.78 7.1 6 7 1026.5 0 18.1 27.0 40.3 105.6 96.6 331.2
05/05 03:00 6.6 99 7.48 6.5 7 7 1026.5 0 17.5 26.7 39.4 103.0 93.1 318.8
05/05 02:50 6.5 99 7.43 6.4 7 9 1026.6 0 17.4 26.6 39.2 102.6 92.5 316.8
05/05 02:40 6.5 99 7.43 6.4 9 11 1026.7 0 17.4 26.6 39.2 102.6 92.5 316.8
05/05 02:30 6.8 99 7.58 6.7 11 13 1026.8 0 17.7 26.8 39.7 103.9 94.3 323.0
05/05 02:20 7.2 99 7.78 7.1 11 11 1026.9 0 18.1 27.0 40.4 105.7 96.6 331.3
05/05 02:10 7.6 99 7.98 7.5 13 13 1027.1 0 18.5 27.3 41.0 107.4 99.0 339.5
05/05 02:00 7.5 99 7.93 7.4 9 11 1027 0 18.4 27.2 40.9 107.0 98.4 337.5
05/05 01:50 6.9 99 7.63 6.8 7 7 1027.2 0 17.8 26.9 39.9 104.4 94.9 325.2
05/05 01:40 7 99 7.67 6.9 6 6 1027.3 0 17.9 26.9 40.0 104.7 95.4 326.8
05/05 01:30 8.2 99 8.29 8.1 6 7 1027.2 0 19.2 27.6 42.1 110.2 102.6 352.3
05/05 01:20 8.5 99 8.46 8.4 7 7 1027.4 0 19.5 27.8 42.6 111.7 104.7 359.5
05/05 01:10 8.5 99 8.46 8.4 6 7 1027.3 0 19.5 27.8 42.6 111.7 104.6 359.4
05/05 01:00 8.4 99 8.4 8.3 7 7 1027.2 0 19.4 27.7 42.4 111.2 103.9 356.9
05/05 00:50 8.3 99 8.35 8.2 7 7 1027.3 0 19.3 27.7 42.3 110.8 103.3 354.9
05/05 00:40 8.1 99 8.24 8 7 7 1027.3 0 19.1 27.6 41.9 109.8 102.0 350.3
05/05 00:30 7.7 99 8.03 7.6 7 9 1027.3 0 18.6 27.3 41.2 107.9 99.6 341.6
05/05 00:20 7.2 99 7.78 7.1 9 9 1027.5 0 18.1 27.0 40.4 105.7 96.7 331.4
05/05 00:10 7.3 98 7.75 7 9 9 1027.5 0 18.1 27.0 40.2 105.3 96.1 329.5
05/05 00:00 7.6 97 7.82 7.2 9 9 1027.4 0 18.2 27.0 40.4 105.6 96.8 331.7
04/05 23:50 8 96 7.94 7.4 9 9 1027.4 0 18.4 27.1 40.7 106.5 97.9 335.9
04/05 23:40 8.4 95 8.06 7.6 7 9 1027.5 0 18.7 27.2 41.0 107.3 99.1 340.1
04/05 23:30 8.7 94 8.13 7.8 7 9 1027.4 0 18.8 27.2 41.1 107.7 99.7 342.2
04/05 23:20 8.8 92 8.01 7.6 7 7 1027.6 0 18.6 27.0 40.6 106.2 97.9 335.9
04/05 23:10 9.8 94 8.72 8.9 7 9 1027.7 0 20.0 27.9 43.1 112.9 106.6 366.4
04/05 23:00 10.2 96 9.14 9.6 9 9 1027.6 0 20.9 28.5 44.7 117.1 112.0 385.3
04/05 22:50 10.2 96 9.14 9.6 9 9 1027.7 0 20.9 28.5 44.7 117.2 112.0 385.4
04/05 22:40 10 97 9.12 9.5 7 9 1027.8 0 20.9 28.5 44.7 117.2 112.0 385.4
04/05 22:30 9.7 97 8.94 9.2 7 9 1027.7 0 20.5 28.3 44.1 115.6 109.9 377.8
04/05 22:20 9.8 97 9 9.3 7 9 1027.8 0 20.6 28.4 44.3 116.1 110.6 380.4
04/05 22:10 9.3 95 8.54 8.5 7 9 1027.8 0 19.7 27.7 42.6 111.6 104.7 359.9
04/05 22:00 9.3 93 8.36 8.2 9 11 1027.8 0 19.3 27.4 41.8 109.5 102.2 351.0
04/05 21:50 9.7 92 8.48 8.5 9 9 1027.9 0 19.5 27.5 42.1 110.3 103.3 355.1
04/05 21:40 10 91 8.55 8.6 7 7 1027.8 0 19.7 27.5 42.2 110.7 103.9 357.1
04/05 21:30 10.6 91 8.88 9.2 9 9 1027.8 0 20.3 27.9 43.3 113.6 107.7 370.5
04/05 21:20 11 91 9.11 9.6 7 9 1027.8 0 20.8 28.2 44.1 115.6 110.4 379.9
04/05 21:10 11.1 89 8.97 9.4 7 7 1027.8 0 20.5 27.9 43.4 113.9 108.3 372.6
04/05 21:00 11.4 88 9.03 9.5 9 11 1027.7 0 20.6 27.9 43.5 114.1 108.7 374.0
04/05 20:50 11.7 90 9.41 10.1 9 11 1027.6 0 21.4 28.4 45.0 118.0 113.6 391.2
04/05 20:40 11.2 88 8.92 9.3 9 9 1027.7 0 20.4 27.8 43.1 113.1 107.4 369.6
04/05 20:30 11.3 86 8.77 9 11 13 1027.6 0 20.1 27.5 42.5 111.3 105.2 361.8
04/05 20:20 12 86 9.17 9.7 11 11 1027.7 0 20.9 27.9 43.8 114.8 109.8 378.0
04/05 20:10 11.9 85 9 9.5 11 13 1027.7 0 20.5 27.7 43.1 113.0 107.6 370.2
04/05 20:00 12.4 82 8.96 9.4 11 13 1027.5 0 20.4 27.5 42.7 111.8 106.3 365.8
04/05 19:50 13.2 82 9.42 10.2 11 11 1027.6 0 21.4 28.0 44.2 115.8 111.5 384.2
04/05 19:40 13.9 80 9.59 10.5 11 11 1027.6 0 21.7 28.1 44.5 116.7 112.9 389.0
04/05 19:30 14.6 80 10.01 11.2 9 13 1027.4 0 22.5 28.5 45.8 120.3 117.6 405.7
04/05 19:20 15.1 80 10.32 11.7 9 11 1027.5 0 23.2 28.9 46.8 123.1 121.2 418.1
04/05 19:10 15.1 82 10.58 12.1 11 11 1027.5 0 23.7 29.3 48.0 126.0 124.8 430.8
04/05 19:00 14.8 85 10.77 12.3 11 13 1027.3 0 24.2 29.8 48.9 128.7 127.9 441.8
04/05 18:50 14 86 10.37 11.7 11 11 1027.3 0 23.3 29.3 47.7 125.4 123.6 426.5
04/05 18:40 13.7 86 10.18 11.4 13 13 1027.2 0 23.0 29.1 47.1 123.7 121.4 418.7
04/05 18:30 13.2 82 9.42 10.2 9 9 1026.9 0 21.4 28.0 44.1 115.8 111.5 384.0
04/05 18:20 13.8 79 9.41 10.2 7 9 1026.8 0 21.3 27.7 43.7 114.8 110.5 380.6

Last Refresh: 05-May-2026 13:32:57

Bureau of Meteorology